This demonstration page uses our WeatherBlox Daily Observations layout. Learn more.

Left ArrowRight Arrow

Hourly Observations for July 4, 2019

Temp ( °F °C ) Dew Point ( °F °C ) Humidity (%) Winds ( mph kmh ) Pressure ( in mb ) Visibility ( mi km ) Precip ( " mm )
12:56 am 00:56 Clear 71 21.7 68 20 90 90 SE 7 11 29.83 1010 10 16 0.00 0.00
1:56 am 01:56 Clear 70 21.1 68 20 93 93 E 3 6 29.82 1010 10 16 0.00 0.00
2:56 am 02:56 Clear 69 20.6 67 19.4 93 93 ESE 3 6 29.80 1009 7 11 0.00 0.00
3:56 am 03:56 Clear 66 18.9 65 18.3 96 96 E 5 7 29.80 1009 10 16 0.00 0.00
4:56 am 04:56 Clear 66 18.9 65 18.3 96 96 NE 6 9 29.81 1009 10 16 0.00 0.00
5:56 am 05:56 Mostly Cloudy 66 18.9 66 18.9 100 100 E 5 7 29.86 1011 8 13 0.00 0.00
6:56 am 06:56 Sunny 67 19.4 65 18.3 93 93 ENE 3 6 29.88 1012 9 14 0.00 0.00
7:27 am 07:27 Mostly Cloudy 66 19 66 19 100 100 NE 6 9 29.87 1012 9 14 0.00 0.00
7:56 am 07:56 Cloudy 69 20.6 67 19.4 93 93 ENE 3 6 29.91 1013 10 16 0.00 0.00
8:56 am 08:56 Cloudy with Light Rain 70 21.1 68 20 93 93 ENE 7 11 29.93 1014 8 13 0.00 0.03
9:26 am 09:26 Cloudy 66 19 64 18 94 94 NNE 17 28 29.92 1013 10 16 0.00 0.03
9:56 am 09:56 Cloudy 67 19.4 63 17.2 87 87 NE 16 26 29.93 1014 10 16 0.00 0.03
10:56 am 10:56 Cloudy 69 20.6 65 18.3 87 87 E 12 19 29.92 1013 10 16 0.00 0.00
11:56 am 11:56 Cloudy 73 22.8 67 19.4 81 81 E 10 17 29.92 1013 10 16 0.00 0.00
12:56 pm 12:56 Cloudy 76 24.4 68 20 77 77 VRB 3 6 29.91 1013 10 16 0.00 0.00
1:56 pm 13:56 Mostly Cloudy 80 26.7 70 21.1 71 71 SSE 9 15 29.88 1012 10 16 0.00 0.00
2:13 pm 14:13 Partly Cloudy 81 27 70 21 70 70 SE 10 17 29.80 1009 10 16 0.00 0.00
2:56 pm 14:56 Mostly Sunny 84 28.9 68 20 59 59 S 15 24 29.86 1011 10 16 0.00 0.00
3:56 pm 15:56 Sunny 86 30 68 20 55 55 S 14 22 29.86 1011 10 16 0.00 0.00
4:56 pm 16:56 Sunny 86 30 67 19.4 53 53 SSE 13 20 29.87 1012 10 16 0.00 0.00
5:56 pm 17:56 Sunny 86 30 68 20 55 55 SE 7 11 29.87 1011 10 16 0.00 0.00
6:56 pm 18:56 Sunny 86 30 69 20.6 57 57 ESE 6 9 29.87 1011 10 16 0.00 0.00
7:56 pm 19:56 Cloudy 83 28.3 70 21.1 65 65 E 6 9 29.88 1012 10 16 0.00 0.00
8:56 pm 20:56 Mostly Cloudy 80 26.7 68 20 67 67 E 8 13 29.90 1012 10 16 0.00 0.00
9:56 pm 21:56 Clear 76 24.4 68 20 77 77 ENE 9 15 29.92 1013 10 16 0.00 0.00
10:56 pm 22:56 Mostly Cloudy 78 25.6 69 20.6 74 74 E 12 19 29.93 1014 10 16 0.00 0.00
11:33 pm 23:33 Mostly Clear with Nearby Thunderstorms 77 25 70 21 79 79 E 9 15 29.87 1011 9 14 0.00 0.03
11:56 pm 23:56 Clear with Nearby Thunderstorms 77 25 69 20.6 77 77 ESE 9 15 29.93 1014 10 16 0.00 0.03

Powered by AerisWeather